CSHVD LPVZ-LPVL

Flight info

Callsign CSHVD
Flight time 0h 24m
Altitude 3500
Route VISEU DCT ALFEN
Aircraft EC35/L-VGD/C

Departure

Time 2026-05-05 12:35
Airport Aerodromo Goncalves Lobato (Viseu Airport) (LPVZ)

Arrival

Time 2026-05-05 12:59
Airport Vilar de Luz Airfield (LPVL)
Time Latitude Longitude Altitude Speed Heading
2026-05-05 12:23 40.72414 -7.89034 2054 ft 0 kts 84°
2026-05-05 12:32 40.72413 -7.89035 2054 ft 0 kts 89°
2026-05-05 12:33 40.72413 -7.89040 2059 ft 1 kts 90°
2026-05-05 12:33 40.72410 -7.89037 2070 ft 0 kts 88°
2026-05-05 12:33 40.72408 -7.89036 2080 ft 0 kts 84°
2026-05-05 12:33 40.72411 -7.89025 2108 ft 3 kts 76°
2026-05-05 12:34 40.72411 -7.88949 2094 ft 9 kts 85°
2026-05-05 12:34 40.72425 -7.88889 2084 ft 4 kts
2026-05-05 12:34 40.72543 -7.88884 2162 ft 34 kts 355°
2026-05-05 12:34 40.72881 -7.88949 2350 ft 59 kts 338°
2026-05-05 12:35 40.73283 -7.89004 2584 ft 62 kts 341°
2026-05-05 12:35 40.73708 -7.89234 2763 ft 69 kts 322°
2026-05-05 12:35 40.74090 -7.89642 2972 ft 72 kts 314°
2026-05-05 12:35 40.74450 -7.90126 3096 ft 82 kts 309°
2026-05-05 12:36 40.74830 -7.90784 2997 ft 97 kts 300°
2026-05-05 12:36 40.75242 -7.91463 3084 ft 90 kts 313°
2026-05-05 12:36 40.75716 -7.91992 3192 ft 88 kts 319°
2026-05-05 12:36 40.76191 -7.92479 3309 ft 86 kts 319°
2026-05-05 12:37 40.76657 -7.92978 3417 ft 85 kts 317°
2026-05-05 12:37 40.77118 -7.93492 3496 ft 89 kts 316°
2026-05-05 12:37 40.77604 -7.94057 3500 ft 96 kts 315°
2026-05-05 12:37 40.78109 -7.94657 3499 ft 98 kts 314°
2026-05-05 12:38 40.78618 -7.95263 3493 ft 98 kts 314°
2026-05-05 12:38 40.79128 -7.95869 3500 ft 99 kts 315°
2026-05-05 12:38 40.79639 -7.96475 3496 ft 99 kts 315°
2026-05-05 12:38 40.80156 -7.97089 3495 ft 99 kts 315°
2026-05-05 12:39 40.80666 -7.97695 3499 ft 98 kts 315°
2026-05-05 12:39 40.81177 -7.98300 3492 ft 98 kts 315°
2026-05-05 12:39 40.81689 -7.98899 3532 ft 101 kts 317°
2026-05-05 12:39 40.82245 -7.99540 3503 ft 110 kts 316°
2026-05-05 12:40 40.82820 -8.00220 3493 ft 111 kts 315°
2026-05-05 12:40 40.83389 -8.00894 3485 ft 111 kts 316°
2026-05-05 12:40 40.83966 -8.01578 3492 ft 112 kts 316°
2026-05-05 12:40 40.84549 -8.02269 3485 ft 113 kts 316°
2026-05-05 12:41 40.85141 -8.02961 3471 ft 113 kts 319°
2026-05-05 12:41 40.85811 -8.03504 3471 ft 112 kts 329°
2026-05-05 12:41 40.86507 -8.03941 3470 ft 111 kts 332°
2026-05-05 12:41 40.87215 -8.04341 3457 ft 111 kts 335°
2026-05-05 12:42 40.87933 -8.04720 3463 ft 109 kts 335°
2026-05-05 12:42 40.88586 -8.05203 3494 ft 107 kts 320°
2026-05-05 12:42 40.89184 -8.05840 3495 ft 111 kts 318°
2026-05-05 12:42 40.89787 -8.06498 3482 ft 112 kts 317°
2026-05-05 12:43 40.90362 -8.07188 3468 ft 111 kts 314°
2026-05-05 12:43 40.90919 -8.07888 3484 ft 110 kts 315°
2026-05-05 12:43 40.91472 -8.08584 3492 ft 110 kts 315°
2026-05-05 12:43 40.92036 -8.09294 3502 ft 111 kts 315°
2026-05-05 12:44 40.92600 -8.10001 3491 ft 112 kts 315°
2026-05-05 12:44 40.93161 -8.10704 3485 ft 111 kts 315°
2026-05-05 12:44 40.93722 -8.11404 3483 ft 111 kts 314°
2026-05-05 12:44 40.94286 -8.12109 3478 ft 111 kts 314°
2026-05-05 12:45 40.94851 -8.12814 3467 ft 110 kts 315°
2026-05-05 12:45 40.95401 -8.13501 3490 ft 110 kts 315°
2026-05-05 12:45 40.95966 -8.14207 3485 ft 110 kts 315°
2026-05-05 12:45 40.96518 -8.14899 3491 ft 110 kts 315°
2026-05-05 12:46 40.97073 -8.15594 3484 ft 110 kts 315°
2026-05-05 12:46 40.97640 -8.16303 3423 ft 114 kts 314°
2026-05-05 12:46 40.98221 -8.17040 3280 ft 119 kts 314°
2026-05-05 12:46 40.98825 -8.17808 3136 ft 120 kts 314°
2026-05-05 12:47 40.99433 -8.18578 3012 ft 120 kts 314°
2026-05-05 12:47 41.00028 -8.19323 2995 ft 116 kts 314°
2026-05-05 12:47 41.00604 -8.20040 2986 ft 113 kts 315°
2026-05-05 12:47 41.01178 -8.20752 2987 ft 111 kts 315°
2026-05-05 12:48 41.01744 -8.21454 2988 ft 112 kts 315°
2026-05-05 12:48 41.02313 -8.22162 3001 ft 111 kts 315°
2026-05-05 12:48 41.02878 -8.22868 3026 ft 112 kts 314°
2026-05-05 12:48 41.03449 -8.23584 3013 ft 113 kts 314°
2026-05-05 12:49 41.04022 -8.24304 3017 ft 113 kts 314°
2026-05-05 12:49 41.04593 -8.25022 3022 ft 112 kts 315°
2026-05-05 12:49 41.05156 -8.25730 3027 ft 112 kts 315°
2026-05-05 12:49 41.05723 -8.26441 3034 ft 111 kts 315°
2026-05-05 12:50 41.06287 -8.27150 3036 ft 111 kts 314°
2026-05-05 12:50 41.06863 -8.27878 2911 ft 118 kts 314°
2026-05-05 12:50 41.07464 -8.28646 2785 ft 120 kts 313°
2026-05-05 12:50 41.08066 -8.29412 2658 ft 121 kts 314°
2026-05-05 12:51 41.08666 -8.30182 2484 ft 118 kts 313°
2026-05-05 12:51 41.09252 -8.30926 2350 ft 115 kts 314°
2026-05-05 12:51 41.09831 -8.31660 2205 ft 115 kts 314°
2026-05-05 12:51 41.10407 -8.32387 2076 ft 114 kts 314°
2026-05-05 12:52 41.10973 -8.33099 2025 ft 109 kts 314°
2026-05-05 12:52 41.11522 -8.33787 2014 ft 107 kts 314°
2026-05-05 12:52 41.12061 -8.34459 2006 ft 106 kts 314°
2026-05-05 12:52 41.12593 -8.35124 2006 ft 105 kts 315°
2026-05-05 12:53 41.13126 -8.35790 2017 ft 104 kts 314°
2026-05-05 12:53 41.13645 -8.36439 2052 ft 102 kts 314°
2026-05-05 12:53 41.14165 -8.37091 2061 ft 103 kts 314°
2026-05-05 12:53 41.14691 -8.37753 2069 ft 104 kts 313°
2026-05-05 12:54 41.15747 -8.39086 2058 ft 104 kts 314°
2026-05-05 12:54 41.16272 -8.39748 2055 ft 103 kts 314°
2026-05-05 12:54 41.16788 -8.40399 2056 ft 103 kts 313°
2026-05-05 12:55 41.17311 -8.41060 2047 ft 103 kts 312°
2026-05-05 12:55 41.17813 -8.41705 2057 ft 97 kts 312°
2026-05-05 12:55 41.18297 -8.42322 2062 ft 96 kts 313°
2026-05-05 12:55 41.18772 -8.42924 2064 ft 96 kts 314°
2026-05-05 12:56 41.19257 -8.43537 2060 ft 95 kts 313°
2026-05-05 12:56 41.19739 -8.44147 2059 ft 95 kts 314°
2026-05-05 12:56 41.20218 -8.44752 2062 ft 94 kts 313°
2026-05-05 12:56 41.20693 -8.45352 2057 ft 95 kts 312°
2026-05-05 12:57 41.21170 -8.45956 2066 ft 95 kts 312°
2026-05-05 12:57 41.21646 -8.46558 2053 ft 95 kts 313°
2026-05-05 12:57 41.22122 -8.47160 2059 ft 94 kts 313°
2026-05-05 12:57 41.22584 -8.47799 1951 ft 97 kts 307°
2026-05-05 12:58 41.22992 -8.48560 1678 ft 102 kts 295°
2026-05-05 12:58 41.23539 -8.49082 1492 ft 98 kts 335°
2026-05-05 12:58 41.24131 -8.49314 1436 ft 78 kts 337°
2026-05-05 12:58 41.24606 -8.49587 1325 ft 73 kts 326°
2026-05-05 12:59 41.25039 -8.49892 1212 ft 67 kts 328°
2026-05-05 12:59 41.25437 -8.50124 1125 ft 57 kts 328°
2026-05-05 12:59 41.25752 -8.50318 1063 ft 45 kts 334°
2026-05-05 13:00 41.26344 -8.50699 984 ft 41 kts 333°
2026-05-05 13:00 41.26550 -8.50841 934 ft 36 kts 348°
2026-05-05 13:01 41.27214 -8.51279 790 ft 36 kts 336°
2026-05-05 13:01 41.27356 -8.51364 760 ft 17 kts 342°
2026-05-05 13:01 41.27461 -8.51433 752 ft 11 kts 348°
2026-05-05 13:01 41.27525 -8.51472 755 ft 10 kts 342°
2026-05-05 13:02 41.27616 -8.51529 773 ft 21 kts 335°
2026-05-05 13:02 41.27712 -8.51595 764 ft 16 kts 339°
2026-05-05 13:02 41.27794 -8.51644 773 ft 10 kts 344°
2026-05-05 13:02 41.27881 -8.51700 767 ft 9 kts 341°
2026-05-05 13:03 41.27922 -8.51750 765 ft 6 kts 289°
2026-05-05 13:03 41.27912 -8.51801 766 ft 9 kts 257°
2026-05-05 13:03 41.27901 -8.51847 765 ft 4 kts 289°
2026-05-05 13:03 41.27902 -8.51864 767 ft 0 kts 33°
2026-05-05 13:04 41.27909 -8.51857 758 ft 0 kts 61°